Lid_Strength_Index
2 3 3 3 3 3 3 2 1 1 1 1 1 2 2 3 3 4 6 7 8 8
3 3 4 4 3 3 3 2 1 1 1 2 2 3 4 4 3 5 6 8 8 8
3 4 4 4 4 4 4 3 2 1 1 2 3 3 4 3 4 6 6 7 8 8
3 4 4 5 5 5 4 3 3 2 2 2 3 4 4 4 6 6 7 8 8 8
3 4 5 5 5 5 5 4 4 3 4 4 3 4 4 4 6 6 7 8 9 10
3 4 4 5 5 5 5 5 5 4 4 5 5 5 5 6 6 7 7 8 9 9
3 4 4 5 5 5 5 6 6 5 6 5 6 6 7 6 7 8 8 8 9 9
3 4 4 5 5 5 6 6 6 6 6 5 5 6 7 8 8 8 9 9 9 7
4 4 4 5 5 5 5 6 6 6 7 6 6 6 7 8 9 9 9 10 10 9
5 5 5 5 5 6 6 6 6 6 7 7 7 7 6 7 7 8 8 9 9 9
6 7 6 6 6 6 6 6 7 7 7 7 7 6 6 6 7 8 8 8 7 7
7 8 8 8 8 7 7 7 8 7 7 7 7 7 6 6 7 7 7 7 7 7
8 8 8 8 8 8 8 9 9 9 8 7 7 7 7 7 8 9 9 9 8 7
9 8 8 8 8 9 9 9 10 10 9 9 8 8 7 8 9 9 10 10 9 8